Location: Bednik
(45.3500°N, 16.3833°E)
Time: 08:24:55
(UTC+00:00)

Cosmos 968 Rocket - Pass Details

Date: 08 August 2020
Orbit: 740 x 772 km, 74.0° (Epoch: 27 September)

Event Time Altitude Azimuth Distance (km) Brightness Sun altitude
Exits shadow 22:58:59 65° 3° (N) 814 3.7 -28.9°
Drops below altitude 10° 23:03:23 10° 20° (NNE) 2,265 6.8 -28.9°
Sets 23:05:46 0° 21° (NNE) 3,196 7.8 -28.9°
